星链-35782(STARLINK-35782)

导读 | 豆包AI

STARLINK-35782是美国SpaceX公司星链(Starlink)星座中的一颗低地球轨道通信卫星,于2025年12月17日发射入轨。星链项目旨在构建全球覆盖的卫星互联网星座,为地面网络未覆盖区域提供高速低延迟宽带服务。作为星链全球覆盖阶段部署的卫星,它延续了成熟技术设计,助力拓展星座服务范围,推动星链实现更广泛的全球网络覆盖。

基本信息
目录编号:
67182
目录名称:
STARLINK-35782
国际标识:
2025-303V
轨道中心:
EARTH
卫星名称:
星链-35782
卫星全名:
星链-35782(STARLINK-35782)
卫星状态:
在轨 (已飞行87 天)
发射日期:
2025-12-17 UTC
国别 :
美国 (US)
星等 :
--
轨道信息
数据来源 国际轨道数据
星历时间: 2026-03-13T23:23:39+0800
10小时前
查看轨道信息
半长轴: 6861.118km
偏心率: 0.0000926
轨道倾角: 42.998°
近地点辐角 237.768°
升交点赤经 288.037°
平近点角 122.309°
近地点: 482.345km
远地点: 483.617km
周期: 94.265分钟
每日圈数: 15.276029
详细信息
固有亮度:
5
最大亮度:
2.5
卫星平台:
Starlink V1.0
覆盖范围:
全球
运营商:
太空探索技术公司
运营商所在国:
美国
制造商(研发单位):
太空探索技术公司
制造商所在国:
美国
使用方式:
暂无
卫星简介
Starlink 计划是 SpaceX 推出的全球卫星互联网项目,通过发射低轨道卫星,为全球尤其是偏远地区提供高速、低延迟的互联网服务。自 2019 年起,Starlink 已部署数千颗卫星,旨在缩小全球数字鸿沟,推动互联网普及。该项目还为军事、航空等行业提供通信支持,带来广泛经济效益。
2D轨道图
3D轨道图
轨道高度分析图
轨道倾角分析图
轨道综合分析图
查看轨道综合分析图